Regional Weather Roundup
Issued by NWS

Home | Current Version | Previous Version | Text Only | Print | Product List | Glossary On
Versions: 1 2 3 4 5 6 7 8 9 10 11 12 13 14 15 16 17 18 19 20 21 22 23 24 25 26 27 28 29 30 31 32 33 34 35 36 37 38 39 40 41 42 43 44 45 46 47 48 49 50
000
ASHW40 PHFO 292332
RWRHI

WEATHER ROUNDUP FOR HAWAII
NATIONAL WEATHER SERVICE HONOLULU HI
100 PM HST SUN MAY 29 2016

THIS IS AN AUTOMATED REPORT THAT HAS NOT BEEN QUALITY CONTROLLED.

NOTE..."FAIR" INDICATES FEW OR NO CLOUDS BELOW 12,000 FEET WITH NO
SIGNIFICANT WEATHER AND/OR OBSTRUCTIONS TO VISIBILITY.

* - THESE SITES REPORT LIMITED FIELDS

HIZ001>004-300000-
KAUAI-NIIHAU-

CITY           SKY/WX    TMP DP  RH WIND       PRES   REMARKS
LIHUE APT      PTSUNNY   79  68  69 E9        30.02F
PORT ALLEN*      N/A     82 N/A N/A SE8         N/A
POIPU*           N/A     79 N/A N/A E3          N/A
PRINCEVILLE*     N/A     81 N/A N/A NE6G13      N/A
KOKOLE POINT*    N/A     84 N/A N/A MISG        N/A
MOLOAA DAIRY*    N/A     84  70  61 NE3G9       N/A
WAIMEA HTS*    NOT AVBL
PUU OPAE*      NOT AVBL
PUU LUA*       NOT AVBL
MAKAHA RIDGE*    N/A     82  68  61 N3          N/A
$$

HIZ005>011-300000-
OAHU-

CITY           SKY/WX    TMP DP  RH WIND       PRES   REMARKS
HONOLULU       MOSUNNY   81  68  64 S8        29.99F
KALAELOA       MOSUNNY   85  67  54 SW12      30.00F
KANEOHE MCB    SUNNY     83  69  62 NE9       29.97F
WHEELER FIELD  PTSUNNY   80  68  65 VRB5      30.00F
BELLOWS*         N/A    N/A N/A N/A NE8         N/A
KAHUKU*          N/A    N/A N/A N/A VRB6G14     N/A
WHEELER*       NOT AVBL
WAIANAE HARBOR NOT AVBL
DILLINGHAM*      N/A     64  45  48 MISG        N/A
KAHUKU TRN*      N/A     68  48  49 CALM        N/A
KAWAILOA*        N/A     79  66  65 NW3G9       N/A
KII*             N/A     81  70  69 NE8         N/A
MAKUA RANGE*     N/A     82  68  61 W5          N/A
OAHU FOREST NW NOT AVBL
SCHOFIELD BRK*   N/A     82  66  57 MISG        N/A
SCHOFIELD S*   NOT AVBL
WAIANAE VLY*   NOT AVBL
KUAOKALA*      NOT AVBL
HONOULIUULI*   NOT AVBL
MOKUOLOE IS*   NOT AVBL
PALEHUA*       NOT AVBL
WAIAWA PHB*    NOT AVBL
$$

HIZ012>013-300000-
MOLOKAI-

CITY           SKY/WX    TMP DP  RH WIND       PRES   REMARKS
MOLOKAI AIRPT  MOSUNNY   80  64  58 N9        30.01F
KALAUPAPA      NOT AVBL
MAKAPULAPAI*     N/A     82  68  61 E7          N/A
MOLOKAI 1*     NOT AVBL
PUU ALII*        N/A     67  62  84 W1          N/A
$$

HIZ016-300000-
KAHOOLAWE-

CITY           SKY/WX    TMP DP  RH WIND       PRES   REMARKS
KAHOOLAWE*       N/A     75 N/A N/A SE1         N/A
HAKIOAWA*        N/A     92  78  62 MISG      30.42F HX 106
HONOKANAIA*      N/A     86  67  52 E9G15     29.96F
KANELOA*         N/A     81  68  65 E9G17     30.08
KEALIALALO*    NOT AVBL
LUA MAKIKA*    NOT AVBL
$$

HIZ014>015-300000-
LANAI-

CITY           SKY/WX    TMP DP  RH WIND       PRES   REMARKS
LANAI CITY     CLOUDY    76  67  73 W10       30.06F
LANAI 1*       NOT AVBL
$$

HIZ017>028-300000-
MAUI-

CITY           SKY/WX    TMP DP  RH WIND       PRES   REMARKS
KAHULUI        MOSUNNY   85  63  47 N12       29.99F
KAPALUA-W MAUI MOSUNNY   82  66  57 VRB6      30.01
HANA AIRPORT   NOT AVBL
HANA*            N/A     81 N/A N/A E10G16      N/A
HALEAKALA SUMM   N/A     54  36  50 N8          N/A
MAALAEA BAY*     N/A     88 N/A N/A S15         N/A
HALEAKALA*     NOT AVBL
KAUPO GAP*     NOT AVBL
KULA 1*          N/A     62  53  73 NW7G16      N/A
$$

HIZ023>026-300000-
BIG ISLAND OF HAWAII COAST AND LOWER SLOPES-

CITY           SKY/WX    TMP DP  RH WIND       PRES   REMARKS
KAILUA KONA    MOSUNNY   84  70  62 S13       29.99F
HILO           MOSUNNY   83  67  58 E9        30.00F
HONOKAA*         N/A     81 N/A N/A VRB1        N/A
KAWAIHAE MWT*    N/A     81 N/A N/A W8          N/A
KAWAIHAE*        N/A     79 N/A N/A W9        29.99F
SOUTH POINT*     N/A     75 N/A N/A NE9G15      N/A
UPOLU AIRPORT*   N/A    N/A N/A N/A NE15G21     N/A
KAMUELA*       NOT AVBL
HAKALAU*         N/A     62  56  80 NE6G12      N/A
KALOKO-HONOKO*   N/A     82  68  61 CALM      29.99S
PALI 2*          N/A     66  64  94 NW5G12      N/A
KEALAKOMO*       N/A     81  66  61 E7          N/A
KAUPULEHU*     NOT AVBL
KAPAPALA*        N/A     71  65  82 E3G9        N/A
LOWER KAHUKU*    N/A     64 N/A N/A SE1         N/A
PUHE CS*         N/A     82  66  57 W5G10       N/A
PUHO CS*         N/A     82  67  60 SW3         N/A
PTA KEAMUKU*     N/A     75  63  64 CALM        N/A
WAIKOLOA*      NOT AVBL
$$

HIZ027>028-300000-
BIG ISLAND OF HAWAII INTERIOR AND SUMMMITS-

CITY           SKY/WX    TMP DP  RH WIND       PRES   REMARKS
BRADSHAW FIELD SUNNY     70  53  55 W15G28    30.29F
MK VISITOR CEN   N/A     52  45  76 W9          N/A
MAUNA KEA*       N/A     46  12  25 N14         N/A
MAUNA LOA*       N/A     50  37  62 MISG        N/A
MAUNA LOA 1*   NOT AVBL
PTA KIPUKA*      N/A     70  50  49 N6G17       N/A
PTA RANGE 17*    N/A     52  37  58 NW13G20     N/A
PTA WEST*        N/A     55  45  67 NW12G18     N/A
NENE CABIN*      N/A     57  50  77 E6G13       N/A
AHUMOA*        NOT AVBL
PTA PORTABLE*  NOT AVBL
PUU MALI*        N/A     61  54  77 N8G14       N/A
$$

HIC003-300000-
NORTHWEST ISLANDS-

CITY           SKY/WX    TMP DP  RH WIND       PRES   REMARKS
MIDWAY ISLAND  SUNNY     75  64  69 E9        30.17F
MIDWAY NOS*      N/A     73 N/A N/A MISG      30.16S
FRENCH FRIGATE NOT AVBL
$$

PHZ110>124-180-300000-
BUOY REPORTS

STATION/POSITION TIME  TEMP    WIND        PRES    WAVE   SWELL
                       AIR SEA DIR/SP/G            HT/PER HT/DIR
                 (UTC) (F)     (DEG/KT/KT) (MB)    (FT/S) (FT/D)
BUOY 51001       2300   79 80   60/ 12/ 14 1017.6F
BUOY 51101       2250   76 80   60/  6/  8 1017.8F   4/13   3/310
BUOY 51100       NOT AVBL
BUOY 51002       2250   78 80   90/  8/ 10 1015.8F   6/15   5/150
BUOY 51003       2250   79 83   20/  6/  8 1015.8F   4/15   3/230
BUOY 51004       2250   77 79   60/  6/  6 1015.9F   6/ 8   5/100
BARBERS PT BUOY  NOT AVBL
WAIMEA BAY BUOY  2304      79                N/A     2/13
KAILUA BAY BUOY  2311      79                N/A     3/ 8   2/140
LANAI BUOY       2315      81                N/A     2/13   2/210
BARBERS PT 2     2303      81                N/A     3/15   3/160
PAUWELA MAUI     2309      79                N/A     4/ 8   2/ 40
HILO             2312      80                N/A     5/ 8   2/120
KANEOHE BAY BUOY 2306      80                N/A     3/ 8
HANALEI KAUAI    NOT AVBL
KAHULUI HARBOR   2300      80              1015.2
HONOLULU HARBOR  2300      79              1016.1
KILO NALU        NOT AVBL
HILO HARBOR      2300      78              1015.4
MOKUOLOE         2200   83 81              1016.3F
NAWILIWILI       2300      80              1016.1
WHOTS BUOY       NOT AVBL
BUOY 51028       NOT AVBL
$$

......................KEY........................................
  SKY/WX - SKY CONDITIONS/PRESENT WEATHER
  TMP    - TEMPERATURE IN FAHRENHEIT
  DWPT   - DEWPOINT IN FAHRENHEIT
  RH     - RELATIVE HUMIDITY IN PERCENT
  WIND   - DIRECTION AND SPEED /MPH FOR ISLANDS...KTS FOR BUOYS/
  PRES   - MEAN SEA LEVEL PRESSURE IN INCHES OF HG
  VSB    - VISIBILITY IN MILES
  HX     - HEAT INDEX
  WCI    - WIND CHILL INDEX
  VRB    - VARIABLE WIND DIRECTION
  N/A    - NOT AVAILABLE




USA.gov is the U.S. government's official web portal to all federal, state and local government web resources and services.